www.pogodaiklimat.ru

Погода и климат >> Архив погоды >> Багамские Острова >> Нассау


АРХИВ ПОГОДЫ в Нассау

Время (UTC), дата Ветер
(напр.,м/с)
 
Видим.   Явления Облачность Т
(С)
Тd
(С)
f
(%)
Тe
(С)
Тes
(С)
Комфортность P
(гПа)
Po
(гПа)
Тmin
(С)
Tmax
(С)
R
(мм)
R24
(мм)
S
(см)
21 12.02 ЮВ 7 15 км 6/6 600 м
[Cu Sc]
+27.7 +21.9 71 +36 +36 очень
душно
1018.5 1017.7
00 13.02 ЮВ 5 15 км 3/3 600 м
[Cu hum]
+25.1 +22.3 84 +33 +33 очень
душно
1018.0 1017.2 +22.3 +28.5
03 13.02 ЮВ 5 15 км 6/6 600 м
[Cu Sc]
+25.0 +22.3 85 +33 +33 очень
душно
1018.8 1018.0
06 13.02 ЮВ 6 15 км 5/5 600 м
[Cu Sc]
+24.8 +22.3 86 +32 +32 очень
душно
1017.7 1016.9
09 13.02 Ю 4 15 км 4/4 600 м
[Cu Sc]
+24.2 +21.5 85 +31 +31 очень
душно
1016.6 1015.8
12 13.02 Ю 4 15 км 6/4 600 м
[Cu Sc Ac trans Ci fib]
+22.9 +21.2 90 +30 +30 очень
душно
1017.2 1016.4 +21.7 +28.5
15 13.02 Ю 5 15 км 4/3 540 м
[Cu med, cong Ci sp]
+28.0 +22.6 73 +37 +40 очень
душно
1017.7 1016.9
18 13.02 Ю 5 15 км 8/6 540 м
[Cu med, cong Ci sp]
+28.1 +22.5 72 +37 +39 очень
душно
1015.4 1014.6
21 13.02 нст 1 11 км гроза, ливневой дождь 9/6 300 м
[Cb cap Ac As]
+21.5 +20.5 94 +27 +28 душно 1014.2 1013.4
00 14.02 С 6 15 км {гроза, ливн. осадки} 9/6 450 м
[Cu Sc Ac As]
+23.0 +21.4 91 +31 +31 очень
душно
1015.2 1014.4 +20.1 +28.5 19
03 14.02 СВ 6 15 км 9/6 450 м
[Cu Sc Ac As]
+23.1 +20.5 85 +30 +30 очень
душно
1016.4 1015.6
06 14.02 В 4 15 км слаб. ливневой дождь 10/10 300 м
[Sc diur, vesp Ac cuf]
+22.6 +20.4 87 +29 +29 очень
душно
1015.3 1014.5 1
09 14.02 ЮВ 2 15 км в посл. час ливневой дождь 9/5 540 м
[Cu Sc Ac As]
+23.8 +21.5 87 +30 +30 очень
душно
1014.3 1013.5
12 14.02 С 3 15 км {дождь} 10/10 300 м
[St Ac lent]
+28.5 +19.1 57 +34 +34 очень
душно
1015.7 1014.9 +19.1 +28.5 23
15 14.02 СВ 6 13 км {дождь} 10/8 300 м
[Cu Sc Ac As]
+22.6 +20.6 88 +29 +30 очень
душно
1015.7 1014.9
18 14.02 В 5 13 км слаб. ливневой дождь 10/8 450 м
[Cu Sc Ac As]
+23.5 +20.1 81 +29 +29 душно 1015.4 1014.6 3
21 14.02 СВ 4 13 км {ливн. осадки} 10/5 540 м
[Cu Sc Ac As]
+23.8 +21.4 86 +30 +30 очень
душно
1013.4 1012.6
00 15.02 В 2 15 км {ливн. осадки} 10/3 600 м
[Cu Sc Ac trans Ci sp]
+23.5 +20.0 81 +29 +29 душно 1014.3 1013.5 +19.1 +28.7 0.7
03 15.02 СВ 3 15 км 8/6 600 м
[Cu Sc Ac trans]
+22.9 +20.0 84 +30 +30 очень
душно
1015.7 1014.9
06 15.02 СВ 3 15 км 9/6 540 м
[Cu Sc Ac As]
+22.3 +19.8 86 +28 +28 душно 1015.0 1014.2
09 15.02 СЗ 2 15 км 6/5 540 м
[Cu Sc Ac As]
+22.0 +19.9 88 +28 +28 душно 1014.0 1013.2
12 15.02 нст 1 15 км {ливн. осадки} 5/5 540 м
[Cu Sc]
+21.0 +20.3 96 +28 +28 очень
душно
1015.0 1014.2 +19.0 +28.0 0.2
15 15.02 СВ 3 15 км 5/5 600 м
[Cu Sc]
+26.1 +21.1 74 +33 +37 очень
душно
1016.6 1015.8
18 15.02 С 4 15 км 5/5 660 м
[Cu Sc]
+26.1 +20.5 71 +32 +37 очень
душно
1015.3 1014.5
21 15.02 С 4 15 км 6/4 660 м
[Cu Sc Ac As Ci fib]
+26.2 +20.6 71 +33 +34 очень
душно
1013.8 1013.0
00 16.02 В 2 15 км 6/3 600 м
[Cu Sc Ac trans Ci sp]
+23.1 +20.0 83 +30 +30 очень
душно
1014.5 1013.7 +19.0 +26.8
03 16.02 нст 1 15 км 6/1 600 м
[Cu hum Ac trans Ci sp]
+21.2 +19.2 88 +26 +26 душно 1015.0 1014.2
06 16.02 штиль 0 15 км 4/1 600 м
[Cu hum Ci fib]
+19.2 +18.7 97 +21 +21 комфорт 1014.7 1013.9
09 16.02 нст 1 15 км 4/0 300 м
[Ci fib]
+19.2 +18.0 93 +23 +23 комфорт 1013.6 1012.8
12 16.02 штиль 0 13 км 4/3 540 м
[Cu hum Ci fib]
+18.5 +16.9 90 +19 +19 по сезону 1015.3 1014.5 +17.0 +26.8
15 16.02 З 2 13 км 8/5 600 м
[Cu med, cong Ci sp]
+25.9 +19.6 68 +31 +36 очень
душно
1016.7 1015.9
18 16.02 ЮЗ 4 15 км 8/3 600 м
[Cu Sc Ci fib]
+27.2 +18.4 59 +32 +38 очень
душно
1015.0 1014.2
21 16.02 Ю 3 15 км 6/5 660 м
[Cu Sc Ci fib]
+27.3 +19.8 64 +33 +35 очень
душно
1013.6 1012.8
00 17.02 Ю 2 15 км 8/6 750 м
[Cu Sc Ci fib]
+24.8 +21.7 83 +32 +32 очень
душно
1014.5 1013.7 +17.0 +29.2
03 17.02 ЮЗ 3 15 км 8/5 750 м
[Cu Sc Ci fib]
+23.4 +21.2 87 +31 +31 очень
душно
1016.0 1015.2
06 17.02 штиль 0 15 км 6/1 600 м
[Cu hum Ci fib]
+20.3 +19.6 96 +24 +24 комфорт 1015.7 1014.9
09 17.02 Ю 2 15 км 1/0
[Ci fib]
+19.8 +18.6 93 +23 +23 комфорт 1015.1 1014.3
12 17.02 Ю 2 15 км 3/3 600 м
[Cu hum]
+21.4 +20.8 96 +27 +27 душно 1017.3 1016.5 +18.6 +29.2
15 17.02 Ю 5 15 км 5/5 600 м
[Cu hum]
+27.3 +21.6 71 +35 +38 очень
душно
1019.4 1018.6
18 17.02 Ю 9 15 км 5/5 600 м
[Cu hum]
+29.0 +20.7 61 +36 +37 очень
душно
1018.2 1017.4
21 17.02 Ю 6 15 км 1/1 1200 м
[Cu hum]
+28.6 +20.9 63 +36 +37 очень
душно
1016.9 1016.1
00 18.02 ЮВ 4 15 км 1/1 600 м
[Cu Sc As op]
+25.8 +18.6 64 +34 +34 очень
душно
1018.4 1017.6 +18.6 +29.4
06 18.02 ЮВ 4 15 км 1/1 600 м
[Cu hum]
+24.9 +23.7 93 +34 +34 очень
душно
1019.0 1018.2
09 18.02 ЮВ 3 15 км 3/3 600 м
[Cu hum]
+24.4 +23.3 94 +33 +33 очень
душно
1018.3 1017.5
12 18.02 Ю 3 15 км 3/3 540 м
[Cu Sc]
+24.2 +23.1 94 +32 +32 очень
душно
1019.7 1018.9 +23.1 +29.4
15 18.02 Ю 6 15 км 6/6 540 м
[Cu Sc]
+28.0 +23.6 77 +38 +40 очень
душно
1022.1 1021.3
18 18.02 ЮВ 6 15 км 5/5 540 м
[Cu med, cong]
+28.4 +22.5 70 +37 +40 очень
душно
1021.5 1020.7
21 18.02 Ю 5 15 км 1/1 600 м
[Cu hum]
+28.7 +22.1 68 +37 +39 очень
душно
1020.2 1019.4
00 19.02 ЮВ 5 15 км 1/1 600 м
[Cu hum]
+26.0 +23.2 85 +35 +35 очень
душно
1022.1 1021.3 +23.1 +29.4
03 19.02 ЮВ 3 15 км ясно +25.0 +22.5 86 1023.2
06 19.02 В 3 15 км 1/1 600 м
[Cu Sc As op]
+24.6 +22.9 90 +33 +33 очень
душно
1023.0 1022.2
12 19.02 В 4 15 км 5/5 600 м
[Cu Sc As op]
+24.1 +22.8 92 +31 +31 очень
душно
1022.5 1021.7 +22.8 +29.4
15 19.02 В 6 15 км 3/3 600 м
[Cu hum]
+27.5 +21.4 69 +35 +37 очень
душно
1023.7 1022.9
18 19.02 ЮВ 7 15 км 6/6 750 м
[Cu med, cong]
+29.1 +22.2 66 +38 +39 очень
душно
1022.4 1021.6

 

Местоположение метеостанции Нассау (Багамские Острова): широта 25.05 долгота -77.46 высота над уровнем моря 7 м.

В архиве по умолчанию представлена погода в Нассау за последнюю неделю. Архивные данные за месяц целиком и за предыдущие месяцы, начиная с января 2011 года, Вы можете получить, выбрав интересующий диапазон дат из раскрывающегося списка и нажав кнопку "Ввод!".


*Определитесь, кто Вы:
робот инопланетянин человек

Внимание! Время в таблицах - всемирное. Для получения местного времени необходимо прибавить поправку, которая равна -4 ч.

Смотрите также архив погоды в соседних городах и на ближайших метеорологических станциях:

Погода в Большой Багаме (Багамские Острова) (208 км)
Погода в Кайо-Коко (Куба) (295 км)
Погода в Кайбарьене (Куба) (347 км)
Погода в Ябу (Куба) (385 км)
Погода в Нуэвитасе (Куба) (392 км)
Погода в Санкти-Спиритусе (Куба) (402 км)
Погода в Камагуэе (Куба) (406 км)
Погода в Хукаро (Куба) (407 км)
Погода в Камагуэе (Куба) (408 км)
Погода в Пуэрто-Падре (Куба) (437 км)

Пояснения к столбцам:

Ветер - указаны скорость ветра в м/с - средняя за 10 мин, порывы в срок и между сроками (в фигурных скобках) и направление, откуда дует ветер: С - северный, СВ - северо-восточный, В - восточный, ЮВ - юго-восточный, Ю - южный, ЮЗ - юго-западный, З - западный, СЗ - северо-западный.
Видимость - горизонтальная дальность видимости в метрах или километрах. При видимости от 1 до 10 км при отсутствии осадков обычно наблюдается дымка, при ухудшении видимости до 1 км и менее - туман. В сухую погоду видимость может ухудшаться дымом, пылью или мглою.
Явления - указаны атмосферные явления, наблюдавшиеся в срок или в последний час перед сроком; фигурными скобками обозначены явления, наблюдавшиеся между сроками (за 1-3 часа до срока); квадратными скобками обозначены град или гололедные отложения с указанием их диаметра в мм.
Облачность - указаны через наклонную черту общая и нижняя облачность в баллах и высота нижней границы облаков в метрах; квадратными скобками обозначены формы облаков: Ci - перистые, Cs - перисто-слоистые, Cc - перисто-кучевые, Ac - высококучевые, As - высокослоистые, Sc - слоисто-кучевые, Ns - слоисто-дождевые, Cu - кучевые, Cb - кучево-дождевые. Подробнее классификацию облаков см. в Атласе облаков (PDF).
T - Температура воздуха - температура, измеренная на высоте 2 м над землей.
Td - Температура точки росы - температура, при понижении до которой содержащийся в воздухе водяной пар достигнет насыщения.
f - Относительная влажность воздуха - влажноcть воздуха, измеренная на высоте 2 м над землей.
Te - Эффективная температура - температура, которую ощущает одетый по сезону человек в тени. Характеристика душности погоды. При расчете учитывается влияние влажности воздуха и скорости ветра на теплоощущения человека.
Tes - Эффективная температура на солнце - температура, которую ощущает человек, с поправкой на солнечный нагрев. Характеристика знойности погоды. Зависит от высоты солнца над горизонтом, облачности и скорости ветра. Ночью, в пасмурную погоду, а также при ветре 12 м/с и более поправка равна нулю.
P - Атмосферное давление - приведенное к уровню моря атмосферное давление.
Po - Атмосферное давление - измеренное на уровне метеостанции атмосферное давление.
Tmin - Минимальная температура - минимум температуры воздуха на высоте 2 м над землей.
Tmax - Максимальная температура - максимум температуры воздуха на высоте 2 м над землей.
R - Количество осадков - Количество выпавших осадков за период времени, мм. При наведении курсора мыши на число - период времени, за который выпало указанное количество осадков.
R24 - Количество осадков - Количество выпавших осадков за 24 часа, мм.
S - Снежный покров - Высота снежного покрова, см. При наведении курсора мыши на число - состояние снежного покрова и степень покрытия местности в баллах.